Location: ??
(35.5653°N, 139.6194°E)
Time: 21:09:53
(UTC+00:00)

Cosmos 1933 - Pass Details

Date: 20 November 2019
Orbit: 546 x 565 km, 82.5° (Epoch: 14 December)

Event Time Altitude Azimuth Distance (km) Brightness Sun altitude
Rises 20:49:14 0° 339° (NNW) 2,721 6.5 -7.1°
Reaches altitude 10° 20:51:39 10° 326° (NW) 1,822 5.5 -6.6°
Maximum altitude 20:54:58 25° 270° (W) 1,117 4.4 -6.0°
Drops below altitude 10° 20:58:16 10° 214° (SW) 1,810 5.8 -5.4°
Sets 21:00:40 0° 201° (SSW) 2,698 6.9 -4.9°
